Location: Banff
(51.1667°N, 115.5667°W)
Time: 08:00:48
(UTC+00:00)

Vanguard 1 - Pass Details

Date: 30 November 2020
Orbit: 648 x 3834 km, 34.3° (Epoch: 22 January)

Event Time Altitude Azimuth Distance (km) Brightness Sun altitude
Exits shadow 13:14:05 - 220° (SW) 3,103 12.4 -19.4°
Reaches altitude 10° 13:15:23 10° 211° (SSW) 2,808 12.2 -19.2°
Maximum altitude 13:20:36 23° 161° (SSE) 2,541 12.5 -18.4°
Drops below altitude 10° 13:28:20 10° 115° (ESE) 4,338 14.6 -17.2°
Sets 13:33:49 0° 104° (ESE) 5,964 15.9 -16.4°
